Location: Newark
(44.3248°N, 23.7839°E)
Time: 22:16:13
(UTC+00:00)

PCSat - Pass Details

Date: 21 April 2024
Orbit: 783 x 792 km, 67.1° (Epoch: 20 May)

Event Time Altitude Azimuth Distance (km) Brightness Sun altitude
Rises 01:30:12 0° 334° (NNW) 3,299 13.0 -19.6°
Reaches altitude 10° 01:32:54 10° 345° (NNW) 2,367 12.3 -19.2°
Maximum altitude 01:37:42 31° 47° (NE) 1,369 11.5 -18.6°
Drops below altitude 10° 01:42:28 10° 109° (ESE) 2,357 12.5 -17.9°
Sets 01:45:08 0° 119° (ESE) 3,282 13.1 -17.5°
